Weather History for Brno, Czech Republic

Change the Weather History Date:

Monday, September 9, 2013

  Actual Average Record
Temperature  
Mean Temperature 60 °F -  
Max Temperature 68 °F 65 °F - ()
Min Temperature 53 °F 47 °F - ()
Degree Days  
Heating Degree Days 4    
Growing Degree Days 10 (Base 50)    
Moisture  
Dew Point 49 °F    
Average Humidity 60    
Maximum Humidity 94    
Minimum Humidity 32    
Precipitation  
Precipitation 0.24 in 0.05 in - ()
Sea Level Pressure  
Sea Level Pressure 30.02 in    
Wind  
Wind Speed 8 mph ()    
Max Wind Speed 17 mph    
Max Gust Speed -    
Visibility 6.4 miles    
Events Rain    
T = Trace of Precipitation, MM = Missing Value Source: Averaged Metar Reports

Daily Weather History Graph

Daily Weather History Graph

Search for Another Location

Airport:

Trip Planner

Search our weather history database for the weather conditions in past years. The results will help you decide how hot, cold, wet, or windy it might be!

Date:

Astronomy

Sep. 09, 2013 Rise Set
Actual Time 6:21 AM CEST 7:19 PM CEST
Civil Twilight 5:48 AM CEST 7:51 PM CEST
Nautical Twilight 5:09 AM CEST 8:30 PM CEST
Astronomical Twilight 4:28 AM CEST 9:11 PM CEST
Moon 10:49 AM CEST (9/9) 8:55 PM CEST (9/9)
Length of Visible Light 14h 02m
Length of Day
12h 58m
Waxing Crescent, 16% of the Moon is Illuminated
Sep 9
Waxing Crescent
Sep 12
First Quarter
Sep 19
Full
Sep 27
Last Quarter
Oct 5
New

Hourly Weather History & Observations

Time (CEST) Temp. Dew Point Humidity Pressure Visibility Wind Dir Wind Speed Gust Speed Precip Events Conditions
12:00 AM 66.2 °F 42.8 °F 43% 30.06 in - ENE 6.9 mph - N/A   Clear
12:30 AM 66.2 °F 44.6 °F 46% 30.04 in - East 8.1 mph - N/A   Clear
1:00 AM 68.0 °F 42.8 °F 40% 30.04 in - East 8.1 mph - N/A   Clear
1:30 AM 66.2 °F 42.8 °F 43% 30.04 in - East 9.2 mph - N/A   Clear
2:00 AM 65 °F 42 °F 32% 30.01 in 25 mi East 11.2 mph - -   Mostly Cloudy
2:00 AM 64.4 °F 42.8 °F 45% 30.01 in - East 10.4 mph - N/A   Clear
2:30 AM 64.4 °F 44.6 °F 49% 30.01 in - East 10.4 mph - N/A   Clear
3:00 AM 66.2 °F 44.6 °F 46% 30.01 in - East 9.2 mph - N/A   Clear
3:30 AM 66.2 °F 42.8 °F 43% 29.98 in - East 10.4 mph - N/A   Clear
4:00 AM 64.4 °F 44.6 °F 49% 29.98 in - ESE 10.4 mph - N/A   Clear
4:30 AM 64.4 °F 44.6 °F 49% 29.95 in - East 11.5 mph - N/A   Clear
5:00 AM 64.4 °F 42.8 °F 45% 29.95 in 6.2 mi East 10.4 mph - N/A   Scattered Clouds
5:30 AM 66.2 °F 42.8 °F 43% 29.92 in 6.2 mi ESE 13.8 mph - N/A   Scattered Clouds
6:00 AM 66.2 °F 42.8 °F 43% 29.92 in 6.2 mi ESE 15.0 mph - N/A   Scattered Clouds
6:30 AM 66.2 °F 44.6 °F 46% 29.95 in 6.2 mi SE 10.4 mph - N/A   Scattered Clouds
7:00 AM 64.4 °F 44.6 °F 49% 29.92 in 6.2 mi SE 11.5 mph - N/A   Scattered Clouds
7:30 AM 66.2 °F 44.6 °F 46% 29.95 in - SE 10.4 mph - N/A   Clear
8:00 AM 65 °F 43 °F 34% 29.95 in 22 mi South 6.7 mph - -   Scattered Clouds
9:46 AM 57.2 °F 51.8 °F 82% 30.01 in 3.1 mi WSW 6.9 mph - N/A Rain Light Rain
10:00 AM 55.4 °F 53.6 °F 94% 30.01 in 3.1 mi SW 10.4 mph - N/A Rain Light Rain
10:30 AM 55.4 °F 53.6 °F 94% 30.01 in 4.3 mi SW 4.6 mph - N/A Rain Light Rain
11:00 AM 57.2 °F 53.6 °F 88% 30.01 in 4.3 mi South 3.5 mph - N/A Rain Light Rain
11:30 AM 57.2 °F 53.6 °F 88% 30.01 in 6.2 mi SW 4.6 mph - N/A Rain Light Rain
12:00 PM 59.0 °F 55.4 °F 88% 30.04 in 6.2 mi WSW 4.6 mph - N/A Rain Light Rain
12:30 PM 59.0 °F 55.4 °F 88% 30.04 in 6.2 mi SW 4.6 mph - N/A Rain Light Rain
1:00 PM 60.8 °F 57.2 °F 88% 30.04 in 6.2 mi SW 4.6 mph - N/A Rain Light Rain
1:30 PM 62.6 °F 57.2 °F 82% 30.04 in 6.2 mi SW 4.6 mph - N/A Rain Light Rain
2:00 PM 64 °F 56 °F 69% 30.03 in 19 mi WSW 13.4 mph - - Rain Light Rain
2:00 PM 64.4 °F 57.2 °F 77% 30.04 in 6.2 mi WSW 10.4 mph - N/A Rain Light Rain
2:30 PM 66.2 °F 57.2 °F 73% 30.04 in 6.2 mi West 11.5 mph - N/A Rain Light Rain
3:00 PM 66.2 °F 53.6 °F 64% 30.04 in - West 13.8 mph - N/A   Clear
3:30 PM 66.2 °F 51.8 °F 60% 30.04 in 6.2 mi West 17.3 mph - N/A   Mostly Cloudy
4:00 PM 66.2 °F 51.8 °F 60% 30.04 in - WNW 8.1 mph - N/A   Clear
4:30 PM 66.2 °F 53.6 °F 64% 30.04 in - WNW 6.9 mph - N/A   Clear
5:00 PM 68.0 °F 53.6 °F 60% 30.04 in - West 4.6 mph - N/A   Clear
5:30 PM 68.0 °F 51.8 °F 56% 30.04 in - West 4.6 mph - N/A   Clear
6:00 PM 68.0 °F 50.0 °F 52% 30.04 in - West 8.1 mph - N/A   Clear
6:30 PM 66.2 °F 50.0 °F 56% 30.04 in - West 4.6 mph - N/A   Clear
7:00 PM 66.2 °F 50.0 °F 56% 30.06 in - West 5.8 mph - N/A   Clear
7:30 PM 62.6 °F 48.2 °F 59% 30.06 in - West 4.6 mph - N/A   Clear
8:00 PM 62 °F 46 °F 44% 30.07 in 25 mi West 6.7 mph - -   Partly Cloudy
8:00 PM 62.6 °F 46.4 °F 55% 30.06 in - West 6.9 mph - N/A   Clear
8:30 PM 60.8 °F 46.4 °F 59% 30.09 in - WNW 6.9 mph - N/A   Clear
9:00 PM 60.8 °F 44.6 °F 55% 30.09 in - NW 6.9 mph - N/A   Clear
9:30 PM 60.8 °F 46.4 °F 59% 30.09 in - NNW 5.8 mph - N/A   Clear
10:00 PM 57.2 °F 46.4 °F 67% 30.09 in - NW 4.6 mph - N/A   Clear
10:30 PM 55.4 °F 46.4 °F 72% 30.09 in - Variable 1.2 mph - N/A   Clear
11:00 PM 53.6 °F 46.4 °F 77% 30.09 in - Variable 1.2 mph - N/A   Clear
11:30 PM 53.6 °F 48.2 °F 82% 30.09 in - West 2.3 mph - N/A   Clear